Location: Marcé
(47.5801°N, 0.3280°W)
Time: 11:13:53
(UTC+01:00)

Tiros 1 - Pass Details

Date: 04 December 2021
Orbit: 630 x 663 km, 48.4° (Epoch: 20 January)

Event Time Altitude Azimuth Distance (km) Brightness Sun altitude
Rises 18:04:56 0° 191° (S) 2,905 11.0 -8.9°
Reaches altitude 10° 18:08:18 10° 165° (SSE) 2,007 9.8 -9.4°
Maximum altitude 18:10:35 14° 135° (SE) 1,780 9.2 -9.7°
Drops below altitude 10° 18:12:54 10° 105° (ESE) 2,022 9.2 -10.1°
Enters shadow 18:13:21 - 100° (E) 2,117 9.3 -10.2°
